Location: Auckland
(36.8670°S, 174.7670°E)
Time: 21:20:24
(UTC+13:00)

Resurs 01 Rocket - Pass Details

Date: 24 January 2019
Orbit: 635 x 644 km, 98.0° (Epoch: 17 October)

Event Time Altitude Azimuth Distance (km) Brightness Sun altitude
Rises 23:13:42 0° 181° (S) 2,974 5.9 -25.0°
Reaches altitude 10° 23:16:12 10° 193° (SSW) 2,055 5.1 -25.3°
Maximum altitude 23:19:54 26° 249° (WSW) 1,264 3.6 -25.7°
Enters shadow 23:23:09 12° 302° (WNW) 1,883 4.0 -26.1°
